Location: Poughquag
(41.6090°N, 73.6820°W)
Time: 03:35:12
(UTC-04:00)

Transit 2A Rocket - Pass Details

Date: 29 May 2020
Orbit: 584 x 919 km, 66.7° (Epoch: 06 July)

Event Time Altitude Azimuth Distance (km) Brightness Sun altitude
Rises 06:31:12 0° 339° (NNW) 3,471 8.4 10.5°
Reaches altitude 10° 06:34:41 10° 360° (N) 2,573 8.0 11.1°
Maximum altitude 06:38:26 17° 38° (NE) 2,158 8.5 11.8°
Drops below altitude 10° 06:42:13 10° 77° (ENE) 2,614 10.8 12.4°
Sets 06:45:47 0° 97° (E) 3,550 9.7 13.1°
